Wind_Speed
12 12 13 13 14 14 14 13 12 11 10 11 9 7 6 1 5 9 8 6 12 7 3 1 1 3 4 3 2 2 0 7 9 6 8 10 6 3 4 11 4 4 10 20 22
12 13 13 14 14 15 14 13 12 12 10 10 9 6 5 1 5 8 8 12 13 6 4 4 2 4 4 1 1 4 6 9 6 7 6 8 5 6 6 7 8 12 16 23 22
13 13 14 14 15 15 15 14 13 11 9 8 7 5 3 3 7 6 11 13 12 6 4 5 2 5 5 1 3 3 6 4 7 7 7 11 7 3 6 3 9 19 25 23 21
14 14 14 15 16 16 16 14 13 11 9 7 5 3 1 7 7 7 14 15 14 9 4 3 4 4 5 0 3 5 7 7 5 5 6 7 8 8 3 11 10 22 24 23 20
14 14 15 16 16 16 16 14 13 11 8 6 3 1 4 4 5 7 13 17 15 10 5 3 5 1 2 2 4 5 7 7 7 6 6 7 5 5 4 7 13 20 21 21 19
15 15 15 16 17 17 16 14 12 10 7 5 3 1 2 8 7 9 15 18 13 9 5 2 2 0 2 2 5 6 10 8 5 7 6 4 4 6 7 12 15 19 19 18 17
16 16 16 17 17 18 17 14 11 9 6 4 3 2 4 6 8 10 16 15 10 7 6 3 1 5 5 7 7 9 6 7 4 5 3 4 7 8 11 15 16 18 17 17 17
16 17 17 17 18 18 16 11 7 5 2 4 4 3 2 9 8 9 13 12 10 7 6 3 1 4 3 9 8 5 5 3 5 8 4 7 4 9 14 17 17 18 17 15 17
17 17 18 18 18 18 11 6 2 1 3 3 3 3 7 9 7 9 11 10 10 8 6 3 4 4 8 10 8 5 5 3 3 10 3 11 7 6 16 17 16 18 19 17 14
18 17 17 18 18 13 9 1 2 1 2 3 3 4 5 9 7 8 11 12 12 12 9 6 7 7 5 9 1 4 3 2 5 3 10 10 13 7 14 18 17 17 18 18 17
18 17 17 17 17 8 5 1 3 1 4 2 4 2 6 5 11 10 12 12 13 17 12 10 10 11 8 3 7 3 5 5 5 4 5 9 13 10 12 17 18 18 17 18 17
19 17 16 15 12 7 5 2 4 2 4 5 8 6 4 3 11 13 14 15 17 16 12 9 9 8 5 4 1 1 2 6 3 4 6 6 13 7 8 16 19 18 18 17 16
20 18 16 15 5 6 3 1 5 5 6 4 5 6 7 7 13 17 18 11 18 16 18 14 10 7 5 5 6 3 8 7 7 7 5 10 11 2 3 9 14 17 17 17 17
21 19 17 13 3 7 2 5 7 1 5 7 7 6 9 7 9 15 17 14 11 17 17 13 10 6 5 3 7 5 4 6 8 8 6 3 9 8 4 4 10 15 18 18 17
21 20 15 13 10 4 6 5 3 1 7 6 7 6 11 11 15 16 16 11 17 12 11 11 11 10 10 2 3 6 3 6 8 11 8 7 7 8 4 7 3 14 17 16 15
20 20 17 14 9 5 6 3 1 6 3 6 7 11 15 12 9 16 16 11 6 14 17 12 6 8 11 6 2 1 5 10 9 8 11 6 5 2 9 7 5 7 12 13 14
20 19 17 12 3 4 5 3 6 6 3 8 9 12 17 12 11 16 18 19 12 16 15 14 14 10 8 10 7 7 13 11 8 6 5 4 8 4 9 6 2 4 10 13 13
21 19 16 11 9 8 7 7 7 2 3 4 5 11 15 14 11 14 16 18 18 16 13 14 15 15 12 15 14 6 12 8 7 9 9 4 7 5 5 1 5 8 10 14 16
21 16 8 6 8 12 10 8 2 4 3 5 8 13 11 14 5 12 14 17 16 15 14 9 16 6 12 12 12 13 13 10 11 9 8 5 2 12 7 5 10 10 13 17 18
21 10 4 5 9 12 9 7 2 1 0 4 9 9 15 17 13 12 13 12 12 14 16 8 6 6 4 10 12 15 5 7 11 8 9 1 4 6 9 2 10 13 17 19 19
13 5 4 7 16 11 10 6 4 5 3 3 4 7 8 16 14 16 13 7 16 16 12 8 10 8 6 11 14 11 13 12 12 5 9 10 3 4 7 6 9 15 19 21 22
4 4 6 11 9 6 8 5 3 6 5 4 3 4 10 13 11 10 9 11 8 13 16 14 8 9 11 5 5 11 16 19 11 13 9 8 11 13 7 3 5 16 18 21 22
5 3 7 4 6 8 4 8 5 8 7 4 4 4 3 11 7 8 8 6 5 10 10 11 9 8 9 10 8 10 15 15 16 15 10 10 8 4 3 3 6 17 20 19 21
4 4 6 7 5 6 9 9 10 8 7 4 2 3 8 9 6 10 12 7 7 5 1 7 15 10 9 10 4 14 15 16 18 13 11 9 14 11 6 4 8 17 24 23 23
4 1 4 8 8 5 6 4 9 9 7 8 6 8 9 8 10 13 13 11 7 6 8 8 11 12 14 11 8 12 11 13 16 18 14 11 6 11 6 3 2 15 23 25 24
3 4 3 2 4 7 6 8 9 7 7 11 8 10 8 7 2 12 10 8 6 6 7 7 6 5 12 12 10 14 14 13 15 15 13 14 14 15 3 2 2 12 24 28 29
3 3 3 6 7 9 7 6 5 4 3 1 4 9 11 7 4 5 4 6 5 3 6 5 5 6 11 1 6 10 16 15 14 13 14 14 13 9 8 9 9 9 20 30 31
Wind_Direction
338 337 335 333 331 330 330 330 330 329 332 328 328 330 328 287 195 188 191 192 166 160 154 238 223 270 279 267 263 283 147 63 56 43 110 140 120 82 90 133 78 60 135 146 151
337 335 333 333 330 327 327 326 326 326 329 324 325 331 337 282 177 190 193 176 156 155 149 177 214 231 261 254 186 285 40 51 21 55 110 151 117 124 145 141 110 105 125 144 152
338 336 334 332 331 327 326 324 321 320 320 318 323 331 354 149 145 164 170 169 165 156 193 240 270 239 275 210 139 103 30 52 50 46 120 132 127 118 136 139 128 146 147 155 159
340 338 336 334 332 328 325 322 315 312 313 313 315 328 52 151 173 166 177 170 166 176 206 245 240 251 265 273 143 130 69 60 63 105 137 133 120 127 64 57 134 153 155 159 164
341 339 336 334 332 329 324 318 309 304 304 301 294 326 141 186 115 173 173 170 168 174 205 219 327 232 257 90 154 107 101 77 98 127 140 130 131 121 115 107 141 155 161 164 165
340 340 339 335 333 330 325 313 304 297 291 280 247 205 165 174 120 140 160 161 171 185 188 172 8 165 143 100 341 112 103 102 116 135 156 161 142 176 152 144 149 167 172 173 173
340 340 340 336 334 332 324 316 302 290 278 243 204 193 216 113 126 139 151 162 182 184 174 140 350 241 169 132 130 143 127 127 149 169 165 166 195 217 164 168 163 177 178 177 183
340 341 340 337 335 334 329 324 310 288 224 192 182 168 142 162 139 151 159 174 177 176 156 139 106 140 206 133 158 195 213 227 151 196 168 220 20 168 179 182 180 182 183 184 192
340 340 339 336 336 336 337 342 352 76 146 166 163 159 148 172 151 169 173 180 174 174 163 145 164 146 158 192 180 206 331 21 175 219 213 222 320 148 185 193 192 190 191 192 189
340 339 339 337 338 337 338 17 33 58 152 131 179 208 186 161 161 176 184 170 173 167 150 174 188 173 208 231 64 31 308 139 341 140 235 243 259 235 201 202 205 200 197 202 200
339 336 338 338 339 339 347 330 295 212 219 289 132 341 128 168 164 175 178 173 178 191 188 189 199 199 192 325 38 46 323 324 76 45 263 262 278 274 204 210 216 214 206 206 211
338 334 336 340 342 359 42 32 60 321 282 228 231 246 210 145 171 174 174 187 189 192 194 178 221 101 118 155 187 336 255 37 146 1 286 322 290 279 206 214 213 217 218 215 210
338 331 333 344 348 2 81 64 345 343 254 167 193 201 186 185 183 173 182 199 200 189 200 214 107 145 154 171 245 142 353 16 345 303 221 307 242 191 160 214 214 218 220 221 218
336 330 331 349 21 341 220 320 340 248 248 135 176 168 178 184 191 172 190 192 207 198 201 224 120 196 199 206 280 286 39 315 313 302 6 344 332 101 109 167 212 221 220 222 218
334 326 325 331 315 313 230 306 329 232 210 139 142 157 169 199 135 186 188 200 198 198 211 191 189 204 238 28 296 56 325 321 295 284 290 95 312 78 129 71 32 202 216 215 216
329 323 317 318 313 245 217 287 217 227 163 136 140 174 171 190 184 156 185 213 222 195 217 219 183 229 251 117 343 64 260 244 250 272 262 71 344 339 27 15 64 162 198 204 200
326 317 309 299 243 218 205 200 217 247 154 150 160 178 186 173 167 174 188 194 185 196 199 208 204 198 217 226 189 245 265 276 256 220 305 66 299 345 25 45 53 136 171 185 188
325 315 302 280 247 212 195 220 235 56 163 129 164 179 193 167 170 188 190 201 213 224 217 210 210 216 206 243 270 238 286 291 298 290 323 81 272 335 356 291 151 139 150 157 163
328 326 302 258 210 187 206 214 205 174 108 171 162 172 188 187 204 184 200 205 197 217 231 216 237 135 239 241 235 222 230 276 292 240 259 279 337 276 85 102 164 163 168 167 164
332 329 250 245 189 174 221 243 179 177 273 210 205 208 186 185 197 201 187 205 192 211 246 190 240 209 202 228 238 259 282 209 218 269 270 286 296 265 325 66 172 169 177 175 169
332 279 306 149 157 194 215 201 206 190 230 229 182 181 211 174 203 195 176 148 206 192 213 218 240 143 205 208 213 198 231 238 290 300 297 286 292 36 301 330 168 181 176 177 177
318 231 179 152 200 212 214 203 197 200 197 239 270 267 191 172 187 181 189 208 193 197 204 219 223 226 206 148 301 292 233 236 234 236 234 297 288 291 315 353 189 172 178 177 180
300 274 187 197 215 203 158 205 238 212 206 197 221 240 202 183 173 192 162 94 158 197 201 181 224 225 216 186 203 239 237 251 258 255 277 286 290 59 300 219 202 174 174 173 177
276 200 168 206 279 241 189 198 204 204 232 221 259 207 178 175 210 181 156 151 133 182 147 224 242 229 247 234 318 204 227 226 246 236 237 236 277 300 239 230 171 189 177 177 179
238 147 341 184 194 205 220 173 196 182 220 206 197 232 195 170 171 173 152 143 156 150 187 224 243 249 260 276 273 238 222 217 233 252 263 273 314 304 338 344 265 202 184 180 182
280 298 207 231 202 220 160 189 203 164 210 186 233 181 191 200 231 167 163 186 172 165 173 203 259 275 266 250 243 247 246 208 222 251 247 263 287 289 33 338 260 211 193 189 185
300 294 270 147 194 212 186 165 164 189 154 76 174 182 175 110 77 97 78 98 114 199 175 209 254 245 270 28 236 241 243 236 237 223 236 247 271 349 284 287 293 250 210 200 192
Height
1524 1522 1519 1517 1515 1513 1512 1510 1508 1507 1505 1503 1502 1500 1499 1498 1499 1500 1502 1504 1504 1505 1506 1505 1504 1505 1503 1503 1503 1501 1492 1500 1500 1499 1506 1509 1511 1515 1516 1518 1520 1522 1522 1529 1534
1523 1520 1518 1516 1513 1511 1510 1508 1507 1505 1503 1501 1500 1499 1498 1497 1498 1499 1501 1502 1504 1506 1506 1507 1507 1506 1503 1502 1502 1498 1492 1499 1498 1499 1502 1509 1511 1514 1516 1518 1522 1525 1527 1532 1536
1522 1520 1517 1514 1512 1509 1508 1506 1504 1502 1501 1500 1499 1498 1497 1496 1498 1499 1499 1501 1504 1506 1506 1507 1507 1506 1500 1500 1500 1500 1500 1499 1502 1503 1505 1510 1513 1515 1514 1513 1519 1524 1528 1533 1536
1520 1518 1515 1513 1510 1507 1505 1503 1502 1500 1499 1498 1497 1497 1496 1496 1496 1497 1498 1501 1504 1506 1507 1507 1506 1502 1498 1496 1500 1499 1503 1503 1507 1508 1509 1510 1514 1516 1516 1518 1521 1524 1528 1533 1537
1519 1517 1514 1512 1508 1505 1503 1501 1499 1498 1497 1497 1496 1496 1496 1497 1497 1496 1497 1501 1504 1505 1507 1507 1503 1503 1497 1499 1500 1498 1504 1506 1509 1510 1510 1514 1515 1516 1519 1522 1524 1527 1531 1534 1537
1518 1516 1513 1509 1506 1503 1500 1498 1496 1495 1495 1495 1495 1495 1496 1494 1496 1496 1497 1500 1503 1505 1507 1507 1505 1504 1501 1502 1499 1503 1506 1508 1510 1511 1513 1514 1517 1517 1521 1523 1526 1529 1531 1535 1538
1516 1514 1510 1507 1504 1501 1497 1495 1493 1492 1493 1493 1494 1495 1496 1497 1496 1496 1498 1501 1503 1505 1506 1506 1506 1505 1502 1502 1505 1504 1506 1508 1510 1511 1512 1515 1518 1514 1517 1522 1525 1528 1531 1534 1537
1514 1511 1508 1505 1501 1498 1495 1493 1491 1491 1491 1492 1494 1495 1494 1495 1496 1497 1498 1500 1502 1504 1506 1506 1505 1504 1501 1503 1503 1501 1501 1507 1508 1510 1513 1515 1510 1509 1516 1519 1522 1526 1530 1533 1535
1512 1509 1506 1503 1499 1496 1493 1492 1491 1490 1491 1492 1494 1495 1493 1495 1497 1497 1499 1501 1503 1504 1505 1505 1505 1502 1502 1497 1500 1500 1508 1506 1506 1507 1509 1512 1506 1507 1513 1517 1519 1523 1527 1531 1534
1510 1508 1504 1501 1497 1494 1493 1491 1491 1491 1492 1493 1494 1498 1494 1494 1496 1497 1498 1501 1502 1503 1505 1505 1502 1497 1495 1490 1516 1505 1507 1503 1506 1502 1505 1505 1505 1502 1511 1514 1515 1520 1525 1528 1531
1509 1506 1503 1499 1497 1494 1492 1491 1494 1494 1491 1489 1490 1491 1492 1494 1494 1497 1498 1500 1501 1500 1496 1500 1496 1497 1494 1493 1497 1503 1504 1505 1500 1501 1504 1500 1496 1494 1501 1511 1513 1516 1520 1525 1528
1507 1504 1501 1498 1496 1494 1492 1494 1493 1495 1490 1488 1489 1490 1491 1492 1494 1496 1497 1498 1497 1495 1492 1499 1494 1495 1498 1499 1499 1501 1502 1505 1499 1502 1503 1495 1492 1487 1495 1502 1508 1512 1516 1521 1525
1506 1502 1499 1497 1495 1495 1493 1493 1492 1491 1489 1486 1488 1489 1491 1493 1490 1493 1496 1494 1493 1491 1494 1493 1490 1500 1498 1500 1501 1499 1501 1508 1508 1498 1498 1496 1486 1490 1493 1499 1503 1507 1511 1515 1519
1504 1500 1497 1495 1497 1494 1495 1492 1491 1490 1479 1482 1484 1486 1490 1490 1490 1491 1494 1495 1491 1493 1492 1490 1496 1500 1499 1501 1500 1501 1502 1504 1503 1500 1506 1498 1509 1484 1489 1496 1501 1503 1506 1509 1513
1503 1499 1496 1495 1495 1495 1494 1492 1490 1491 1486 1479 1482 1484 1487 1486 1483 1491 1494 1495 1491 1489 1493 1494 1498 1502 1502 1497 1499 1502 1502 1503 1501 1496 1499 1498 1502 1485 1486 1489 1491 1497 1500 1504 1508
1500 1496 1494 1493 1492 1492 1491 1491 1492 1487 1485 1476 1477 1480 1483 1484 1483 1487 1492 1494 1488 1489 1494 1487 1494 1496 1495 1500 1502 1501 1501 1496 1494 1492 1506 1501 1505 1490 1486 1492 1491 1494 1498 1501 1505
1497 1493 1491 1491 1493 1490 1490 1492 1485 1479 1471 1476 1472 1474 1474 1478 1481 1483 1486 1489 1491 1502 1499 1492 1494 1493 1498 1500 1500 1499 1499 1510 1510 1509 1511 1492 1500 1489 1482 1487 1491 1492 1496 1499 1504
1492 1488 1486 1486 1486 1488 1489 1487 1487 1470 1465 1471 1470 1471 1474 1473 1476 1479 1482 1486 1482 1483 1484 1497 1506 1493 1494 1496 1496 1494 1496 1507 1530 1518 1504 1494 1506 1487 1479 1488 1491 1493 1496 1499 1503
1489 1485 1483 1482 1483 1485 1489 1480 1467 1467 1468 1469 1472 1474 1473 1473 1475 1478 1479 1479 1481 1483 1490 1492 1495 1483 1487 1490 1494 1495 1507 1487 1501 1490 1508 1493 1489 1477 1478 1484 1490 1493 1496 1498 1502
1485 1483 1483 1480 1481 1485 1482 1473 1471 1473 1473 1472 1468 1464 1474 1472 1477 1476 1478 1474 1477 1481 1479 1484 1500 1486 1486 1493 1490 1493 1485 1504 1496 1525 1527 1497 1500 1497 1480 1475 1486 1488 1492 1496 1500
1485 1483 1480 1479 1481 1485 1475 1469 1473 1474 1475 1471 1468 1468 1460 1467 1468 1473 1475 1475 1476 1480 1482 1479 1488 1493 1492 1492 1489 1496 1497 1494 1487 1494 1513 1514 1495 1470 1475 1471 1479 1483 1488 1493 1498
1485 1478 1480 1480 1481 1475 1470 1473 1476 1471 1474 1473 1472 1467 1464 1464 1468 1469 1472 1471 1477 1476 1486 1482 1481 1494 1490 1480 1483 1482 1483 1484 1498 1505 1495 1502 1499 1465 1469 1472 1477 1479 1486 1490 1497
1485 1482 1480 1480 1470 1471 1473 1473 1473 1471 1469 1470 1468 1468 1467 1464 1474 1468 1470 1477 1480 1479 1477 1479 1486 1495 1492 1485 1485 1488 1482 1481 1478 1476 1495 1505 1493 1468 1471 1474 1479 1477 1485 1491 1495
1485 1474 1479 1480 1476 1466 1469 1468 1469 1472 1471 1471 1468 1468 1467 1467 1465 1470 1470 1477 1481 1479 1483 1482 1473 1479 1485 1479 1471 1482 1479 1477 1479 1487 1490 1489 1481 1468 1464 1469 1477 1477 1482 1488 1493
1483 1474 1475 1471 1472 1470 1470 1468 1466 1467 1469 1470 1467 1466 1463 1468 1466 1467 1466 1475 1479 1482 1482 1477 1478 1470 1468 1465 1468 1470 1473 1476 1484 1476 1482 1474 1474 1467 1462 1471 1473 1477 1481 1486 1491
1482 1478 1478 1472 1474 1471 1471 1467 1465 1465 1464 1464 1464 1461 1465 1464 1461 1468 1467 1468 1471 1477 1477 1475 1479 1475 1477 1464 1469 1474 1468 1469 1473 1472 1471 1474 1475 1460 1468 1474 1475 1475 1477 1481 1484
1482 1481 1480 1471 1468 1467 1461 1464 1465 1469 1468 1465 1464 1461 1464 1472 1473 1473 1473 1473 1474 1472 1473 1475 1473 1479 1480 1470 1471 1484 1468 1465 1463 1464 1467 1475 1462 1461 1464 1467 1470 1473 1474 1476 1479